SL-8 DEB, 1634

Orbit data source: Space-Track

SL-8 DEB, 1634 is space debris in LEO originally from a launch on Mon, 15 Mar 1965 UTC launched from the Tyuratam Missile And Space Complex (TTMTR). Debris objects in space refer to the collection of defunct objects orbiting the Earth. Examples of debris include non-operational satellites, rocket bodies, and fragments generated from explosions, collisions, or faulty payload assembly.

Loading next visibility...
Identifier
1634, 1965-020ED
Orbit
LEO
Last TLE update
1 day ago
Origin
Manufacturer
Unknown
Mission
Spacecraft
Bus & Motor
Unknown
Mass
Unknown
Launch date (UTC)
1965-03-15 (60 years ago)
Launch vehicle
Unknown
Launch site
Tyuratam Missile And Space Complex (TTMTR)
Object type
Payload
Rocket body
Debris
Shape & HBR
Unknown
Radar Cross Section
Small (<0.1 m²)

Expand to show TLE details & history

TLE from 1 day ago
0 SL-8 DEB
1 01634U 65020ED  25166.55051022  .00000313  00000-0  72099-3 0  9994
2 01634  56.1602 342.1947 0851448 306.8125  45.7545 12.48430160716699
Epoch: 2025-06-15T13:12Z
TLE epoch observation values (Epoch: 2025-06-15T13:12:44.083Z)
Latitude
0.00003°
Longitude
-120.06296°
Altitude
1,037.787 km
Speed
7.534 km/s
True Right ascension
22h 48m 46s
True Declination
0° 00' 00"
Sunlit
Object was in daylight at epoch
Visualization orbit readout
Latitude
-7.70091°
Longitude
61.71924°
Altitude
1,755.771 km
Speed
6.875 km/s
Apparent Right ascension
13h 13m 54s
Apparent Declination
-31° 28' 51"
Sunlit
Object is in daylight
Visualization observer readout
Local Sidereal Time
05:48:54
Azimuth
104.273° ESE
Elevation
-34.9°
Doppler factor
1
Orbital elements
Apogee altitude
2,139.178 km
Perigee altitude
802.573 km
Semi-major axis
7,849.012 km
Eccentricity
0.08514
Inclination
56.1602°
RAAN
342.1947°
Arg. of periapsis
306.8125°
True anomaly
Unknown
Mean anomaly
45.7545°
Eccentric anomaly
Unknown
Mean motion
3.12119 °/min
Orbital period
115.34 mins
BSTAR
0.00072099
Loading maneuver chart data...
Loading SW <> Apogee altitude chart data...
Loading historical data...
Loading historical data...
Loading historical data...
Loading historical data...
Loading historical data...
Loading historical data...
Loading historical data...

SL-8 DEB Visibility forecast

Observer location: undefined°, undefined°

Span
Click to sort rows by Start time (UTC) header in descending order
Start Az.
Max El. time (UTC)
Max El. Az.
Max El.
End time (UTC)
End Az.
23 mins2025-06-16 20:27:09.939Z316.483° NNW2025-06-16 20:38:09.939Z31.906° NE41.731°2025-06-16 20:50:09.939Z115.607° SE
22 mins2025-06-16 22:29:09.939Z307.428° NW2025-06-16 22:40:09.939Z230.301° WSW39.68°2025-06-16 22:51:09.939Z163.678° S
8 mins2025-06-17 00:35:09.939Z271.791° WNW2025-06-17 00:38:09.939Z256.907° W13.315°2025-06-17 00:43:09.939Z231.742° WSW
6 mins2025-06-17 11:29:09.939Z123.47° SE2025-06-17 11:31:09.939Z108.037° ESE13.265°2025-06-17 11:35:09.939Z80.819° E
17 mins2025-06-17 13:23:09.939Z207.366° SW2025-06-17 13:30:09.939Z111.927° ESE42.951°2025-06-17 13:40:09.939Z48.03° ENE
18 mins2025-06-17 15:24:09.939Z266.614° W2025-06-17 15:31:09.939Z333.259° NNW36.344°2025-06-17 15:42:09.939Z45.662° ENE
18 mins2025-06-17 17:27:09.939Z304.431° NW2025-06-17 17:35:09.939Z2.125° NNE29.68°2025-06-17 17:45:09.939Z60.995° ENE
|